Weather History for Clearfield, PA

Change the Weather History Date:

Tuesday, April 1, 2014

  Actual Average (KDUJ) Record (KDUJ)
Temperature  
Mean Temperature 48 °F 41 °F  
Max Temperature 68 °F 51 °F 80 °F (1986)
Min Temperature 30 °F 31 °F 11 °F (1964)
Degree Days  
Heating Degree Days 17 24  
Month to date heating degree days 24  
Since 1 July heating degree days 5982  
Cooling Degree Days 0 0  
Month to date cooling degree days 0  
Year to date cooling degree days 0  
Moisture  
Dew Point 29 °F    
Average Humidity 53    
Maximum Humidity 82    
Minimum Humidity 27    
Precipitation  
Precipitation 0.00 in 0.12 in 0.61 in (1998)
Month to date precipitation 0.12  
Sea Level Pressure  
Sea Level Pressure 30.03 in    
Wind  
Wind Speed 6 mph (NE)    
Max Wind Speed 9 mph    
Max Gust Speed 17 mph    
Visibility 10 miles    
Events      
T = Trace of Precipitation, MM = Missing Value Source: NWS Daily Summary

Daily Weather History Graph

Daily Weather History Graph

Search for Another Location

Airport:

Trip Planner

Search our weather history database for the weather conditions in past years. The results will help you decide how hot, cold, wet, or windy it might be!

Date:

Astronomy

Apr. 01, 2014 Rise Set
Actual Time 6:56 AM EDT 7:38 PM EDT
Civil Twilight 6:29 AM EDT 8:06 PM EDT
Nautical Twilight 5:56 AM EDT 8:39 PM EDT
Astronomical Twilight 5:22 AM EDT 9:13 PM EDT
Moon 7:57 AM EDT (4/1) 10:00 PM EDT (4/1)
Length of Visible Light 13h 37m
Length of Day
12h 41m
Waxing Crescent, 4% of the Moon is Illuminated
Apr 1
Waxing Crescent
Apr 7
First Quarter
Apr 15
Full
Apr 22
Last Quarter
Apr 29
New

Hourly Weather History & Observations

Time (EDT) Temp. Windchill Dew Point Humidity Pressure Visibility Wind Dir Wind Speed Gust Speed Precip Events Conditions
12:54 AM 37.0 °F 32.4 °F 23.0 °F 57% 30.16 in 10.0 mi ENE 5.8 mph - N/A   Clear
1:54 AM 34.0 °F 27.2 °F 24.1 °F 67% 30.16 in 10.0 mi ENE 8.1 mph - N/A   Clear
2:54 AM 35.1 °F 30.1 °F 24.1 °F 64% 30.14 in 10.0 mi NE 5.8 mph - N/A   Clear
3:54 AM 30.9 °F 26.2 °F 24.1 °F 76% 30.14 in 10.0 mi North 4.6 mph - N/A   Clear
4:54 AM 32.0 °F 27.5 °F 25.0 °F 75% 30.13 in 10.0 mi NNE 4.6 mph - N/A   Clear
5:54 AM 30.0 °F 24.1 °F 24.1 °F 79% 30.14 in 10.0 mi NNE 5.8 mph - N/A   Clear
6:54 AM 30.0 °F 21.7 °F 25.0 °F 82% 30.13 in 10.0 mi NE 9.2 mph - N/A   Clear
7:54 AM 33.1 °F 30.0 °F 26.1 °F 75% 30.15 in 10.0 mi North 3.5 mph - N/A   Clear
8:54 AM 34.0 °F 28.0 °F 26.1 °F 73% 30.13 in 10.0 mi NNE 6.9 mph - N/A   Clear
9:54 AM 37.0 °F 31.6 °F 27.0 °F 67% 30.12 in 10.0 mi NE 6.9 mph - N/A   Clear
10:54 AM 42.1 °F 38.4 °F 28.0 °F 58% 30.10 in 10.0 mi NE 5.8 mph - N/A   Clear
11:54 AM 46.0 °F 43.1 °F 28.9 °F 51% 30.06 in 10.0 mi NE 5.8 mph - N/A   Scattered Clouds
12:54 PM 51.1 °F - 30.0 °F 44% 30.04 in 10.0 mi NNE 5.8 mph - N/A   Mostly Cloudy
1:54 PM 55.9 °F - 30.0 °F 37% 29.99 in 10.0 mi NE 5.8 mph - N/A   Mostly Cloudy
2:54 PM 60.1 °F - 28.9 °F 31% 29.94 in 10.0 mi Variable 3.5 mph - N/A   Partly Cloudy
3:54 PM 64.9 °F - 30.0 °F 27% 29.89 in 10.0 mi ESE 8.1 mph - N/A   Clear
4:54 PM 66.0 °F - 32.0 °F 28% 29.87 in 10.0 mi South 9.2 mph 17.3 mph N/A   Clear
5:54 PM 66.9 °F - 33.1 °F 28% 29.87 in 10.0 mi South 5.8 mph - N/A   Clear
6:54 PM 64.0 °F - 32.0 °F 30% 29.89 in 10.0 mi Variable 5.8 mph - N/A   Clear
7:54 PM 57.9 °F - 33.1 °F 39% 29.91 in 10.0 mi ENE 4.6 mph - N/A   Clear
8:54 PM 55.0 °F - 33.1 °F 43% 29.94 in 10.0 mi North 5.8 mph - N/A   Clear
9:54 PM 52.0 °F - 33.1 °F 49% 29.94 in 10.0 mi NNW 4.6 mph - N/A   Clear
10:54 PM 48.9 °F - 33.1 °F 54% 29.95 in 10.0 mi NNW 5.8 mph - N/A   Clear
11:54 PM 53.1 °F - 33.1 °F 47% 29.96 in 10.0 mi SW 4.6 mph - N/A   Clear